TimePDT,TemperatureF,Dew PointF,Humidity,Sea Level PressureIn,VisibilityMPH,Wind Direction,Wind SpeedMPH,Gust SpeedMPH,PrecipitationIn,Events,Conditions,WindDirDegrees,DateUTC
12:55 AM,32.0,26.1,79,30.20,5.0,Calm,Calm,-,N/A,,Haze,0,2013-03-14 07:55:00
1:55 AM,30.9,26.1,82,30.19,10.0,Calm,Calm,-,N/A,,Clear,0,2013-03-14 08:55:00
2:55 AM,28.9,25.0,85,30.19,10.0,Calm,Calm,-,N/A,,Clear,0,2013-03-14 09:55:00
3:55 AM,28.9,25.0,85,30.18,10.0,Calm,Calm,-,N/A,,Clear,0,2013-03-14 10:55:00
4:55 AM,28.9,26.1,89,30.17,9.0,Calm,Calm,-,N/A,,Clear,0,2013-03-14 11:55:00
5:55 AM,28.9,26.1,89,30.18,10.0,Calm,Calm,-,N/A,,Clear,0,2013-03-14 12:55:00
6:55 AM,27.0,24.1,89,30.19,10.0,Calm,Calm,-,N/A,,Clear,0,2013-03-14 13:55:00
7:55 AM,28.9,26.1,89,30.22,10.0,NW,3.5,-,N/A,,Clear,320,2013-03-14 14:55:00
8:55 AM,34.0,30.0,85,30.23,10.0,Calm,Calm,-,N/A,,Clear,0,2013-03-14 15:55:00
9:55 AM,39.0,33.1,79,30.24,10.0,Calm,Calm,-,N/A,,Clear,0,2013-03-14 16:55:00
10:55 AM,44.1,33.1,65,30.23,10.0,Calm,Calm,-,N/A,,Clear,0,2013-03-14 17:55:00
11:55 AM,51.1,32.0,48,30.22,10.0,Calm,Calm,-,N/A,,Clear,0,2013-03-14 18:55:00
12:55 PM,57.9,35.1,42,30.21,10.0,West,4.6,-,N/A,,Clear,260,2013-03-14 19:55:00
1:55 PM,61.0,30.0,31,30.19,10.0,WNW,6.9,-,N/A,,Clear,290,2013-03-14 20:55:00
2:55 PM,63.0,30.9,30,30.17,10.0,West,6.9,-,N/A,,Clear,260,2013-03-14 21:55:00
3:55 PM,66.9,26.1,21,30.14,10.0,West,10.4,-,N/A,,Clear,260,2013-03-14 22:55:00
5:55 PM,62.1,28.0,28,30.16,10.0,West,12.7,-,N/A,,Clear,260,2013-03-15 00:55:00
6:55 PM,57.9,30.0,35,30.17,10.0,West,6.9,-,N/A,,Clear,260,2013-03-15 01:55:00
7:55 PM,55.0,30.0,38,30.18,10.0,West,12.7,-,N/A,,Mostly Cloudy,270,2013-03-15 02:55:00
8:55 PM,52.0,28.9,41,30.18,10.0,West,8.1,-,N/A,,Mostly Cloudy,260,2013-03-15 03:55:00
9:55 PM,48.9,28.0,44,30.20,10.0,Calm,Calm,-,N/A,,Clear,0,2013-03-15 04:55:00
10:55 PM,37.0,26.1,65,30.23,9.0,Calm,Calm,-,N/A,,Clear,0,2013-03-15 05:55:00
11:55 PM,33.1,26.1,75,30.22,8.0,Calm,Calm,-,N/A,,Clear,0,2013-03-15 06:55:00